KAC103 OKKK-OBBI

Flight info

Callsign KAC103
Flight time 0h 45m
Altitude 27000
Route BOXIK B416 IMDOX P975 LONOS L703 KOBOK
Aircraft B77W/H-SDE1E2E3FGHIJ2J3J4J5M1RWXY/LB1D1

Departure

Time 2026-05-05 17:46
Airport Kuwait International Airport (OKKK)

Arrival

Time 2026-05-05 18:32
Airport Bahrain International Airport (OBBI)
Time Latitude Longitude Altitude Speed Heading
2026-05-05 17:02 29.23764 47.97160 171 ft 0 kts 67°
2026-05-05 17:22 29.23759 47.97148 151 ft 2 kts 68°
2026-05-05 17:22 29.23753 47.97130 153 ft 2 kts 71°
2026-05-05 17:22 29.23748 47.97113 148 ft 2 kts 77°
2026-05-05 17:23 29.23746 47.97094 175 ft 2 kts 102°
2026-05-05 17:23 29.23755 47.97079 172 ft 2 kts 150°
2026-05-05 17:23 29.23760 47.97075 172 ft 0 kts 154°
2026-05-05 17:25 29.23764 47.97072 173 ft 0 kts 179°
2026-05-05 17:25 29.23769 47.97072 173 ft 1 kts 181°
2026-05-05 17:26 29.23774 47.97072 174 ft 1 kts 181°
2026-05-05 17:26 29.23773 47.97072 172 ft 1 kts 182°
2026-05-05 17:26 29.23770 47.97072 172 ft 0 kts 182°
2026-05-05 17:32 29.23769 47.97072 172 ft 0 kts 179°
2026-05-05 17:33 29.23765 47.97075 172 ft 1 kts 163°
2026-05-05 17:33 29.23755 47.97080 172 ft 2 kts 157°
2026-05-05 17:33 29.23737 47.97088 172 ft 3 kts 157°
2026-05-05 17:33 29.23712 47.97101 172 ft 4 kts 156°
2026-05-05 17:34 29.23681 47.97119 172 ft 6 kts 152°
2026-05-05 17:34 29.23645 47.97145 172 ft 7 kts 145°
2026-05-05 17:34 29.23604 47.97178 172 ft 8 kts 147°
2026-05-05 17:34 29.23554 47.97208 172 ft 9 kts 153°
2026-05-05 17:35 29.23501 47.97237 171 ft 3 kts 162°
2026-05-05 17:35 29.23475 47.97243 171 ft 4 kts 171°
2026-05-05 17:35 29.23441 47.97232 171 ft 6 kts 207°
2026-05-05 17:35 29.23417 47.97191 171 ft 7 kts 254°
2026-05-05 17:36 29.23397 47.97138 171 ft 8 kts 255°
2026-05-05 17:36 29.23416 47.97084 171 ft 8 kts 317°
2026-05-05 17:36 29.23461 47.97043 171 ft 9 kts 316°
2026-05-05 17:36 29.23492 47.96985 170 ft 9 kts 283°
2026-05-05 17:37 29.23504 47.96912 170 ft 10 kts 278°
2026-05-05 17:37 29.23515 47.96826 169 ft 12 kts 279°
2026-05-05 17:37 29.23519 47.96733 168 ft 12 kts 252°
2026-05-05 17:37 29.23448 47.96721 168 ft 12 kts 148°
2026-05-05 17:38 29.23372 47.96763 169 ft 12 kts 155°
2026-05-05 17:38 29.23291 47.96806 169 ft 13 kts 155°
2026-05-05 17:38 29.23207 47.96851 169 ft 13 kts 155°
2026-05-05 17:38 29.23122 47.96895 171 ft 13 kts 155°
2026-05-05 17:39 29.23037 47.96941 173 ft 13 kts 155°
2026-05-05 17:39 29.22952 47.96986 172 ft 14 kts 155°
2026-05-05 17:39 29.22863 47.97033 172 ft 14 kts 155°
2026-05-05 17:39 29.22773 47.97080 172 ft 14 kts 155°
2026-05-05 17:40 29.22683 47.97128 172 ft 14 kts 155°
2026-05-05 17:40 29.22591 47.97177 172 ft 15 kts 155°
2026-05-05 17:40 29.22495 47.97228 172 ft 15 kts 155°
2026-05-05 17:40 29.22399 47.97279 172 ft 15 kts 155°
2026-05-05 17:41 29.22303 47.97330 172 ft 15 kts 155°
2026-05-05 17:41 29.22207 47.97381 172 ft 15 kts 155°
2026-05-05 17:41 29.22112 47.97432 171 ft 15 kts 155°
2026-05-05 17:41 29.22016 47.97483 171 ft 15 kts 155°
2026-05-05 17:42 29.21920 47.97533 171 ft 15 kts 155°
2026-05-05 17:42 29.21824 47.97585 171 ft 15 kts 155°
2026-05-05 17:42 29.21729 47.97637 172 ft 15 kts 155°
2026-05-05 17:42 29.21635 47.97687 172 ft 15 kts 155°
2026-05-05 17:43 29.21539 47.97738 173 ft 15 kts 155°
2026-05-05 17:43 29.21443 47.97788 174 ft 15 kts 155°
2026-05-05 17:43 29.21347 47.97839 175 ft 15 kts 155°
2026-05-05 17:43 29.21266 47.97828 175 ft 7 kts 222°
2026-05-05 17:44 29.21246 47.97779 175 ft 7 kts 264°
2026-05-05 17:44 29.21261 47.97722 175 ft 8 kts 297°
2026-05-05 17:44 29.21284 47.97667 175 ft 8 kts 291°
2026-05-05 17:44 29.21318 47.97615 175 ft 9 kts 322°
2026-05-05 17:45 29.21352 47.97590 174 ft 0 kts 332°
2026-05-05 17:45 29.21356 47.97588 174 ft 1 kts 332°
2026-05-05 17:45 29.21363 47.97584 174 ft 0 kts 335°
2026-05-05 17:45 29.21490 47.97517 173 ft 60 kts 335°
2026-05-05 17:46 29.22134 47.97178 171 ft 140 kts 335°
2026-05-05 17:46 29.23176 47.96608 375 ft 181 kts 334°
2026-05-05 17:46 29.24362 47.95963 948 ft 193 kts 336°
2026-05-05 17:46 29.25493 47.95371 2135 ft 172 kts 335°
2026-05-05 17:47 29.26569 47.94807 3026 ft 168 kts 334°
2026-05-05 17:47 29.27650 47.94241 3695 ft 176 kts 334°
2026-05-05 17:47 29.28845 47.93614 4015 ft 208 kts 333°
2026-05-05 17:47 29.30301 47.92847 4122 ft 248 kts 334°
2026-05-05 17:48 29.31950 47.92004 4644 ft 266 kts 338°
2026-05-05 17:48 29.33822 47.91732 5418 ft 279 kts
2026-05-05 17:48 29.35680 47.92450 6378 ft 288 kts 29°
2026-05-05 17:48 29.37137 47.94061 7250 ft 298 kts 58°
2026-05-05 17:49 29.37783 47.96321 8093 ft 303 kts 89°
2026-05-05 17:49 29.37379 47.98623 9015 ft 298 kts 120°
2026-05-05 17:49 29.36472 48.00743 9773 ft 301 kts 110°
2026-05-05 17:49 29.35881 48.03090 10249 ft 312 kts 116°
2026-05-05 17:50 29.34767 48.05338 10495 ft 337 kts 129°
2026-05-05 17:50 29.33280 48.07554 10715 ft 366 kts 133°
2026-05-05 17:50 29.31604 48.09832 11325 ft 380 kts 134°
2026-05-05 17:50 29.29858 48.12157 12235 ft 388 kts 135°
2026-05-05 17:51 29.28086 48.14522 13260 ft 394 kts 135°
2026-05-05 17:51 29.26290 48.16933 14208 ft 401 kts 135°
2026-05-05 17:51 29.24474 48.19389 15156 ft 406 kts 135°
2026-05-05 17:51 29.22641 48.21880 16115 ft 412 kts 135°
2026-05-05 17:52 29.20786 48.24410 17087 ft 418 kts 135°
2026-05-05 17:52 29.18904 48.26980 18068 ft 424 kts 135°
2026-05-05 17:52 29.16992 48.29592 18872 ft 431 kts 135°
2026-05-05 17:52 29.15048 48.32247 19689 ft 438 kts 135°
2026-05-05 17:53 29.13076 48.34939 20497 ft 444 kts 135°
2026-05-05 17:53 29.11076 48.37668 21316 ft 451 kts 135°
2026-05-05 17:53 29.09071 48.40400 22083 ft 457 kts 135°
2026-05-05 17:53 29.07009 48.43209 22841 ft 464 kts 135°
2026-05-05 17:54 29.04916 48.46058 23567 ft 471 kts 135°
2026-05-05 17:54 29.02798 48.48939 24187 ft 476 kts 135°
2026-05-05 17:54 29.00655 48.51853 24844 ft 481 kts 136°
2026-05-05 17:54 28.98491 48.54794 25492 ft 486 kts 136°
2026-05-05 17:55 28.96302 48.57767 26140 ft 490 kts 136°
2026-05-05 17:55 28.94100 48.60755 26757 ft 493 kts 136°
2026-05-05 17:55 28.91887 48.63758 26771 ft 493 kts 136°
2026-05-05 17:55 28.89688 48.66741 26768 ft 489 kts 136°
2026-05-05 17:56 28.87500 48.69706 26772 ft 488 kts 136°
2026-05-05 17:56 28.85311 48.72666 26748 ft 489 kts 136°
2026-05-05 17:56 28.83112 48.75635 26763 ft 490 kts 136°
2026-05-05 17:56 28.80949 48.78661 26770 ft 494 kts 132°
2026-05-05 17:57 28.79005 48.81908 26765 ft 500 kts 126°
2026-05-05 17:57 28.77301 48.85374 26765 ft 502 kts 123°
2026-05-05 17:57 28.75649 48.88833 26764 ft 502 kts 123°
2026-05-05 17:57 28.73979 48.92321 26759 ft 501 kts 123°
2026-05-05 17:58 28.72297 48.95798 26740 ft 501 kts 124°
2026-05-05 17:58 28.70599 48.99273 26746 ft 500 kts 124°
2026-05-05 17:58 28.68899 49.02731 26749 ft 500 kts 124°
2026-05-05 17:58 28.67198 49.06179 26752 ft 499 kts 124°
2026-05-05 17:59 28.65497 49.09626 26755 ft 499 kts 124°
2026-05-05 17:59 28.63797 49.13072 26754 ft 499 kts 124°
2026-05-05 17:59 28.62101 49.16508 26752 ft 499 kts 124°
2026-05-05 17:59 28.60367 49.19919 26746 ft 494 kts 128°
2026-05-05 18:00 28.58259 49.22959 26739 ft 486 kts 140°
2026-05-05 18:00 28.55766 49.25506 26764 ft 479 kts 148°
2026-05-05 18:00 28.53047 49.27565 26742 ft 471 kts 158°
2026-05-05 18:00 28.50166 49.29387 26762 ft 473 kts 154°
2026-05-05 18:01 28.47530 49.31614 26747 ft 483 kts 145°
2026-05-05 18:01 28.45026 49.34184 26765 ft 487 kts 143°
2026-05-05 18:01 28.42526 49.36791 26728 ft 488 kts 143°
2026-05-05 18:01 28.39999 49.39379 26751 ft 489 kts 144°
2026-05-05 18:02 28.37446 49.41935 26751 ft 489 kts 144°
2026-05-05 18:02 28.34882 49.44470 26750 ft 489 kts 145°
2026-05-05 18:02 28.32305 49.47007 26748 ft 488 kts 144°
2026-05-05 18:02 28.29741 49.49536 26744 ft 488 kts 144°
2026-05-05 18:03 28.27191 49.52062 26747 ft 487 kts 144°
2026-05-05 18:03 28.24635 49.54593 26734 ft 486 kts 144°
2026-05-05 18:03 28.22088 49.57104 26742 ft 484 kts 145°
2026-05-05 18:03 28.19462 49.59472 26742 ft 481 kts 148°
2026-05-05 18:04 28.16791 49.61753 26744 ft 480 kts 149°
2026-05-05 18:04 28.14118 49.64016 26748 ft 480 kts 149°
2026-05-05 18:04 28.11444 49.66287 26751 ft 480 kts 149°
2026-05-05 18:04 28.08812 49.68538 26730 ft 481 kts 149°
2026-05-05 18:05 28.06145 49.70826 26734 ft 481 kts 149°
2026-05-05 18:05 28.03469 49.73102 26740 ft 481 kts 150°
2026-05-05 18:05 28.00736 49.75279 26759 ft 480 kts 152°
2026-05-05 18:05 27.97970 49.77399 26754 ft 480 kts 152°
2026-05-05 18:06 27.95198 49.79512 26750 ft 481 kts 152°
2026-05-05 18:06 27.94264 49.80226 26750 ft 481 kts 152°
2026-05-05 18:06 27.89660 49.83784 26732 ft 483 kts 151°
2026-05-05 18:06 27.86887 49.85945 26740 ft 483 kts 151°
2026-05-05 18:07 27.85054 49.87375 26744 ft 483 kts 151°
2026-05-05 18:07 27.82291 49.89527 26745 ft 483 kts 151°
2026-05-05 18:07 27.79514 49.91678 26746 ft 482 kts 152°
2026-05-05 18:07 27.75864 49.94495 26733 ft 469 kts 152°
2026-05-05 18:08 27.74082 49.95867 26735 ft 466 kts 152°
2026-05-05 18:08 27.71408 49.97920 26737 ft 466 kts 152°
2026-05-05 18:08 27.68717 49.99982 26753 ft 469 kts 152°
2026-05-05 18:08 27.66011 50.02056 26758 ft 471 kts 152°
2026-05-05 18:09 27.63294 50.04140 26752 ft 472 kts 152°
2026-05-05 18:09 27.60578 50.06226 26755 ft 473 kts 152°
2026-05-05 18:09 27.57858 50.08315 26751 ft 472 kts 152°
2026-05-05 18:09 27.55144 50.10398 26750 ft 471 kts 152°
2026-05-05 18:10 27.52437 50.12474 26744 ft 470 kts 152°
2026-05-05 18:10 27.49732 50.14547 26749 ft 470 kts 152°
2026-05-05 18:10 27.47032 50.16614 26755 ft 469 kts 152°
2026-05-05 18:10 27.44336 50.18678 26756 ft 469 kts 152°
2026-05-05 18:11 27.41667 50.20799 26752 ft 470 kts 150°
2026-05-05 18:11 27.39029 50.22966 26755 ft 470 kts 149°
2026-05-05 18:11 27.36427 50.25121 26760 ft 470 kts 149°
2026-05-05 18:11 27.33787 50.27299 26760 ft 470 kts 150°
2026-05-05 18:12 27.31134 50.29471 26652 ft 472 kts 150°
2026-05-05 18:12 27.28430 50.31669 25876 ft 482 kts 149°
2026-05-05 18:12 27.25721 50.33873 25309 ft 478 kts 149°
2026-05-05 18:12 27.23040 50.36049 24695 ft 474 kts 149°
2026-05-05 18:13 27.20373 50.38209 24076 ft 470 kts 149°
2026-05-05 18:13 27.17735 50.40342 23459 ft 466 kts 148°
2026-05-05 18:13 27.15107 50.42467 22755 ft 461 kts 148°
2026-05-05 18:13 27.12554 50.44530 22126 ft 456 kts 148°
2026-05-05 18:14 27.10021 50.46580 21509 ft 438 kts 148°
2026-05-05 18:14 27.07612 50.48530 20947 ft 417 kts 148°
2026-05-05 18:14 27.05306 50.50392 20417 ft 399 kts 148°
2026-05-05 18:14 27.03096 50.52173 19922 ft 385 kts 148°
2026-05-05 18:15 27.00913 50.53916 19451 ft 387 kts 148°
2026-05-05 18:15 26.98568 50.55443 18959 ft 395 kts 160°
2026-05-05 18:15 26.95909 50.56400 18414 ft 406 kts 171°
2026-05-05 18:15 26.93105 50.56763 17799 ft 405 kts 180°
2026-05-05 18:16 26.90328 50.56864 17181 ft 403 kts 181°
2026-05-05 18:16 26.87535 50.56944 16592 ft 400 kts 181°
2026-05-05 18:16 26.84763 50.57030 16014 ft 397 kts 181°
2026-05-05 18:16 26.82006 50.57127 15468 ft 395 kts 181°
2026-05-05 18:17 26.79270 50.57236 14905 ft 392 kts 180°
2026-05-05 18:17 26.76549 50.57352 14336 ft 390 kts 180°
2026-05-05 18:17 26.73837 50.57471 13781 ft 389 kts 180°
2026-05-05 18:17 26.71136 50.57592 13176 ft 387 kts 180°
2026-05-05 18:18 26.68462 50.57712 12741 ft 381 kts 180°
2026-05-05 18:18 26.65830 50.57830 12232 ft 377 kts 180°
2026-05-05 18:18 26.63224 50.57947 11710 ft 374 kts 180°
2026-05-05 18:18 26.60632 50.58062 11180 ft 371 kts 180°
2026-05-05 18:19 26.58060 50.58176 10799 ft 365 kts 180°
2026-05-05 18:19 26.55596 50.58288 10625 ft 353 kts 180°
2026-05-05 18:19 26.53189 50.58417 10480 ft 336 kts 176°
2026-05-05 18:19 26.51006 50.59184 10362 ft 329 kts 152°
2026-05-05 18:20 26.49327 50.60851 10222 ft 316 kts 129°
2026-05-05 18:20 26.48326 50.62923 10056 ft 292 kts 112°
2026-05-05 18:20 26.47778 50.65039 9691 ft 279 kts 97°
2026-05-05 18:20 26.47821 50.67177 9411 ft 280 kts 86°
2026-05-05 18:21 26.47526 50.69341 9147 ft 284 kts 115°
2026-05-05 18:21 26.46542 50.71240 8587 ft 282 kts 126°
2026-05-05 18:21 26.45361 50.72943 7884 ft 279 kts 140°
2026-05-05 18:21 26.43728 50.73955 7358 ft 263 kts 169°
2026-05-05 18:22 26.41966 50.74059 6899 ft 248 kts 190°
2026-05-05 18:22 26.40354 50.73538 6439 ft 237 kts 207°
2026-05-05 18:22 26.38944 50.72652 5919 ft 230 kts 221°
2026-05-05 18:22 26.38051 50.71216 5356 ft 228 kts 255°
2026-05-05 18:23 26.37929 50.69454 5137 ft 231 kts 277°
2026-05-05 18:23 26.38436 50.67730 4770 ft 240 kts 298°
2026-05-05 18:23 26.39325 50.66131 4432 ft 243 kts 303°
2026-05-05 18:23 26.40256 50.64581 4240 ft 239 kts 302°
2026-05-05 18:24 26.41175 50.63051 4018 ft 236 kts 302°
2026-05-05 18:24 26.42072 50.61536 3826 ft 231 kts 302°
2026-05-05 18:24 26.42944 50.60042 3574 ft 230 kts 302°
2026-05-05 18:24 26.43811 50.58544 3308 ft 229 kts 302°
2026-05-05 18:25 26.44672 50.57052 3047 ft 228 kts 302°
2026-05-05 18:25 26.45239 50.56065 2854 ft 229 kts 302°
2026-05-05 18:25 26.46371 50.54092 2583 ft 224 kts 302°
2026-05-05 18:25 26.47125 50.52613 2498 ft 218 kts 285°
2026-05-05 18:26 26.47127 50.50963 2507 ft 212 kts 246°
2026-05-05 18:26 26.46304 50.49689 2517 ft 199 kts 212°
2026-05-05 18:26 26.45071 50.49056 2502 ft 193 kts 189°
2026-05-05 18:26 26.43764 50.49038 2496 ft 186 kts 172°
2026-05-05 18:27 26.42468 50.49170 2496 ft 188 kts 173°
2026-05-05 18:27 26.41159 50.49296 2478 ft 189 kts 173°
2026-05-05 18:27 26.39871 50.49420 2501 ft 179 kts 172°
2026-05-05 18:27 26.38670 50.49536 2469 ft 168 kts 172°
2026-05-05 18:28 26.36390 50.49754 2436 ft 167 kts 171°
2026-05-05 18:28 26.35285 50.50092 2263 ft 164 kts 141°
2026-05-05 18:28 26.34543 50.51021 2181 ft 160 kts 128°
2026-05-05 18:29 26.33826 50.52003 2005 ft 164 kts 129°
2026-05-05 18:29 26.33125 50.52974 1840 ft 160 kts 127°
2026-05-05 18:29 26.32500 50.53965 1690 ft 154 kts 124°
2026-05-05 18:29 26.31913 50.54970 1605 ft 156 kts 123°
2026-05-05 18:30 26.31319 50.56002 1364 ft 159 kts 124°
2026-05-05 18:30 26.30761 50.56976 1204 ft 141 kts 124°
2026-05-05 18:30 26.30235 50.57889 945 ft 138 kts 122°
2026-05-05 18:30 26.29724 50.58780 758 ft 136 kts 122°
2026-05-05 18:31 26.29212 50.59671 577 ft 138 kts 122°
2026-05-05 18:31 26.28695 50.60573 377 ft 138 kts 122°
2026-05-05 18:31 26.28186 50.61471 154 ft 135 kts 122°
2026-05-05 18:31 26.27681 50.62335 26 ft 128 kts 121°
2026-05-05 18:32 26.27320 50.62960 19 ft 36 kts 123°
2026-05-05 18:32 26.27179 50.63201 18 ft 31 kts 123°
2026-05-05 18:32 26.27070 50.63387 17 ft 28 kts 124°
2026-05-05 18:32 26.26961 50.63476 17 ft 13 kts 190°
2026-05-05 18:33 26.26949 50.63471 17 ft 0 kts 202°
2026-05-05 18:33 26.26915 50.63451 17 ft 19 kts 211°
2026-05-05 18:33 26.26856 50.63395 17 ft 11 kts 209°
2026-05-05 18:34 26.26841 50.63387 18 ft 0 kts 205°
2026-05-05 18:34 26.26796 50.63363 19 ft 10 kts 205°